![](https://secure.gravatar.com/avatar/900f734c10632692418d1b47311b6af5.jpg?s=120&d=mm&r=g)
SB KEPS @ AMSAT $ORB11307.O Orbital Elements 11307.OSCAR
HR AMSAT ORBITAL ELEMENTS FOR OSCAR SATELLITES FROM WA5QGD FORT WORTH,TX November 3, 2011 Send Subscribe/unsubscribe to KEPS at http://www.amsat.org/mailman/listinfo/keps BID: ORB11307.O TO ALL RADIO AMATEURS BT
Satellite: AO-07 Catalog number: 07530 Epoch time: 11306.85881168 Element set: 220 Inclination: 101.3972 deg RA of node: 307.9454 deg Eccentricity: 0.0012060 Arg of perigee: 008.5310 deg Mean anomaly: 351.5961 deg Mean motion: 12.53585167 rev/day Decay rate: -2.7e-07 rev/day^2 Epoch rev: 69156 Checksum: 284
Satellite: FO-29 Catalog number: 24278 Epoch time: 11306.93499383 Element set: 0713 Inclination: 098.5680 deg RA of node: 072.5085 deg Eccentricity: 0.0349696 Arg of perigee: 257.7288 deg Mean anomaly: 098.4493 deg Mean motion: 13.52967931 rev/day Decay rate: 8.9e-07 rev/day^2 Epoch rev: 75122 Checksum: 371
Satellite: SO-33 Catalog number: 25509 Epoch time: 11306.68146097 Element set: 0091 Inclination: 031.4322 deg RA of node: 180.9573 deg Eccentricity: 0.0353001 Arg of perigee: 012.7761 deg Mean anomaly: 348.1593 deg Mean motion: 14.28490110 rev/day Decay rate: 7.32e-06 rev/day^2 Epoch rev: 68009 Checksum: 281
Satellite: RS-22 Catalog number: 27939 Epoch time: 11306.79669286 Element set: 0774 Inclination: 097.8271 deg RA of node: 154.0556 deg Eccentricity: 0.0012378 Arg of perigee: 265.4622 deg Mean anomaly: 094.5168 deg Mean motion: 14.63717516 rev/day Decay rate: 9.75e-06 rev/day^2 Epoch rev: 43261 Checksum: 345
Satellite: VO-52 Catalog number: 28650 Epoch time: 11306.82846997 Element set: 0941 Inclination: 097.6258 deg RA of node: 343.6514 deg Eccentricity: 0.0028038 Arg of perigee: 067.9711 deg Mean anomaly: 292.4488 deg Mean motion: 14.82328362 rev/day Decay rate: 1.979e-05 rev/day^2 Epoch rev: 35128 Checksum: 351
Satellite: SO-67 Catalog number: 35870 Epoch time: 11307.21869569 Element set: 370 Inclination: 097.2640 deg RA of node: 345.8669 deg Eccentricity: 0.0000633 Arg of perigee: 230.3544 deg Mean anomaly: 202.2130 deg Mean motion: 15.21617716 rev/day Decay rate: 5.632e-05 rev/day^2 Epoch rev: 11807 Checksum: 295
Satellite: HO-68 Catalog number: 36122 Epoch time: 11307.18093594 Element set: 887 Inclination: 100.3985 deg RA of node: 005.7806 deg Eccentricity: 0.0007162 Arg of perigee: 267.5155 deg Mean anomaly: 092.5142 deg Mean motion: 13.16289666 rev/day Decay rate: -4.4e-07 rev/day^2 Epoch rev: 9052 Checksum: 308
/EX SB KEPS @ AMSAT $ORB11307.D Orbital Elements 11307.MICROS
HR AMSAT ORBITAL ELEMENTS FOR THE MICROSATS FROM WA5QGD FORT WORTH,TX November 3, 2011 Send Subscribe/unsubscribe to KEPS at http://www.amsat.org/mailman/listinfo/keps BID: ORB11307.D TO ALL RADIO AMATEURS BT
Satellite: UO-11 Catalog number: 14781 Epoch time: 11306.80150961 Element set: 0701 Inclination: 097.9883 deg RA of node: 002.9482 deg Eccentricity: 0.0010043 Arg of perigee: 053.9116 deg Mean anomaly: 306.3024 deg Mean motion: 14.80118248 rev/day Decay rate: 1.037e-05 rev/day^2 Epoch rev: 48629 Checksum: 278
Satellite: AO-16 Catalog number: 20439 Epoch time: 11306.86488854 Element set: 316 Inclination: 098.4009 deg RA of node: 251.9559 deg Eccentricity: 0.0011665 Arg of perigee: 109.7589 deg Mean anomaly: 250.4851 deg Mean motion: 14.31962669 rev/day Decay rate: 2.33e-06 rev/day^2 Epoch rev: 13746 Checksum: 332
Satellite: LO-19 Catalog number: 20442 Epoch time: 11306.85288090 Element set: 0244 Inclination: 098.3652 deg RA of node: 255.7721 deg Eccentricity: 0.0012738 Arg of perigee: 103.3346 deg Mean anomaly: 256.9260 deg Mean motion: 14.32185515 rev/day Decay rate: 1.83e-06 rev/day^2 Epoch rev: 13764 Checksum: 294
Satellite: AO-27 Catalog number: 22825 Epoch time: 11306.54283127 Element set: 0953 Inclination: 098.5474 deg RA of node: 248.2369 deg Eccentricity: 0.0007780 Arg of perigee: 224.3703 deg Mean anomaly: 135.6848 deg Mean motion: 14.29383597 rev/day Decay rate: 2.04e-06 rev/day^2 Epoch rev: 94395 Checksum: 334
Satellite: IO-26 Catalog number: 22826 Epoch time: 11306.86672241 Element set: 0702 Inclination: 098.5405 deg RA of node: 248.9853 deg Eccentricity: 0.0008165 Arg of perigee: 219.6377 deg Mean anomaly: 140.4208 deg Mean motion: 14.29649944 rev/day Decay rate: 2.26e-06 rev/day^2 Epoch rev: 94412 Checksum: 320
Satellite: GO-32 Catalog number: 25397 Epoch time: 11306.83179404 Element set: 0620 Inclination: 098.3401 deg RA of node: 292.0676 deg Eccentricity: 0.0000767 Arg of perigee: 182.2955 deg Mean anomaly: 177.8219 deg Mean motion: 14.23230205 rev/day Decay rate: 6.3e-07 rev/day^2 Epoch rev: 69168 Checksum: 302
Satellite: NO-44 Catalog number: 26931 Epoch time: 11306.62531161 Element set: 0887 Inclination: 067.0540 deg RA of node: 346.8023 deg Eccentricity: 0.0004841 Arg of perigee: 263.2466 deg Mean anomaly: 096.8092 deg Mean motion: 14.29704826 rev/day Decay rate: 3.98e-06 rev/day^2 Epoch rev: 52671 Checksum: 310
Satellite: SO-50 Catalog number: 27607 Epoch time: 11306.88130189 Element set: 0606 Inclination: 064.5597 deg RA of node: 266.1704 deg Eccentricity: 0.0082578 Arg of perigee: 292.5465 deg Mean anomaly: 066.6967 deg Mean motion: 14.71936034 rev/day Decay rate: 1.667e-05 rev/day^2 Epoch rev: 47650 Checksum: 342
Satellite: CO-55 Catalog number: 27844 Epoch time: 11306.55342269 Element set: 0235 Inclination: 098.7068 deg RA of node: 313.2554 deg Eccentricity: 0.0009738 Arg of perigee: 155.5214 deg Mean anomaly: 204.6427 deg Mean motion: 14.20878324 rev/day Decay rate: 3.75e-06 rev/day^2 Epoch rev: 43256 Checksum: 312
Satellite: CO-57 Catalog number: 27848 Epoch time: 11306.51859222 Element set: 0181 Inclination: 098.7138 deg RA of node: 312.4599 deg Eccentricity: 0.0009710 Arg of perigee: 160.2040 deg Mean anomaly: 199.9509 deg Mean motion: 14.20649656 rev/day Decay rate: 3.27e-06 rev/day^2 Epoch rev: 43250 Checksum: 316
Satellite: AO-51 Catalog number: 28375 Epoch time: 11306.93643674 Element set: 0112 Inclination: 098.1156 deg RA of node: 278.2168 deg Eccentricity: 0.0084614 Arg of perigee: 010.0516 deg Mean anomaly: 350.2384 deg Mean motion: 14.40814638 rev/day Decay rate: 4.40e-06 rev/day^2 Epoch rev: 38604 Checksum: 291
Satellite: CP3 Catalog number: 31129 Epoch time: 11306.53997381 Element set: 0010 Inclination: 097.8927 deg RA of node: 322.7163 deg Eccentricity: 0.0102787 Arg of perigee: 110.9706 deg Mean anomaly: 250.2565 deg Mean motion: 14.52646878 rev/day Decay rate: 1.070e-05 rev/day^2 Epoch rev: 24092 Checksum: 300
Satellite: CO-65 Catalog number: 32785 Epoch time: 11306.41163612 Element set: 0140 Inclination: 097.8337 deg RA of node: 007.5534 deg Eccentricity: 0.0015974 Arg of perigee: 085.4282 deg Mean anomaly: 274.8772 deg Mean motion: 14.82291693 rev/day Decay rate: 2.198e-05 rev/day^2 Epoch rev: 19001 Checksum: 314
Satellite: PRISM Catalog number: 33493 Epoch time: 11306.91610933 Element set: 0110 Inclination: 098.1431 deg RA of node: 077.7403 deg Eccentricity: 0.0018858 Arg of perigee: 314.3168 deg Mean anomaly: 045.6518 deg Mean motion: 14.82303258 rev/day Decay rate: 3.927e-05 rev/day^2 Epoch rev: 15006 Checksum: 283
Satellite: SOHLA-1 Catalog number: 33496 Epoch time: 11306.94151702 Element set: 0569 Inclination: 098.0905 deg RA of node: 055.4570 deg Eccentricity: 0.0007485 Arg of perigee: 048.1576 deg Mean anomaly: 312.0268 deg Mean motion: 14.69722963 rev/day Decay rate: 6.50e-06 rev/day^2 Epoch rev: 14886 Checksum: 317
Satellite: TISAT-1 Catalog number: 36799 Epoch time: 11306.87116154 Element set: 0379 Inclination: 098.0886 deg RA of node: 016.4145 deg Eccentricity: 0.0015217 Arg of perigee: 184.8817 deg Mean anomaly: 175.2245 deg Mean motion: 14.80955581 rev/day Decay rate: 2.625e-05 rev/day^2 Epoch rev: 07083 Checksum: 325
Satellite: STUDSAT Catalog number: 36801 Epoch time: 11306.92001180 Element set: 0271 Inclination: 098.0924 deg RA of node: 016.4525 deg Eccentricity: 0.0013807 Arg of perigee: 173.5281 deg Mean anomaly: 186.6141 deg Mean motion: 14.81643429 rev/day Decay rate: 6.963e-05 rev/day^2 Epoch rev: 07083 Checksum: 280
Satellite: OOREOS Catalog number: 37224 Epoch time: 11283.12196780 Element set: 0302 Inclination: 071.9656 deg RA of node: 145.3580 deg Eccentricity: 0.0018647 Arg of perigee: 057.9354 deg Mean anomaly: 302.3616 deg Mean motion: 14.77183931 rev/day Decay rate: 9.55e-06 rev/day^2 Epoch rev: 04784 Checksum: 307
Satellite: FO-69 Catalog number: 37227 Epoch time: 11306.46083341 Element set: 0014 Inclination: 071.9687 deg RA of node: 094.3610 deg Eccentricity: 0.0014766 Arg of perigee: 028.8783 deg Mean anomaly: 331.3193 deg Mean motion: 14.76727385 rev/day Decay rate: 1.152e-05 rev/day^2 Epoch rev: 00247 Checksum: 306
Satellite: NANOSALD Catalog number: 37361 Epoch time: 11242.25215765 Element set: 0351 Inclination: 071.9735 deg RA of node: 221.4469 deg Eccentricity: 0.0025730 Arg of perigee: 245.3422 deg Mean anomaly: 114.7284 deg Mean motion: 15.22200108 rev/day Decay rate: 1.80112e-03 rev/day^2 Epoch rev: 03331 Checksum: 248
Satellite: FO-70 Catalog number: 37380 Epoch time: 11306.49654346 Element set: 0015 Inclination: 071.9711 deg RA of node: 094.5527 deg Eccentricity: 0.0016849 Arg of perigee: 016.1778 deg Mean anomaly: 343.9927 deg Mean motion: 14.76487598 rev/day Decay rate: 7.85e-06 rev/day^2 Epoch rev: 00237 Checksum: 340
/EX SB KEPS @ AMSAT $ORB11307.W Orbital Elements 11307.WEATHER
HR AMSAT ORBITAL ELEMENTS FOR WEATHER SATELLITES FROM WA5QGD FORT WORTH,TX November 3, 2011 Send Subscribe/unsubscribe to KEPS at http://www.amsat.org/mailman/listinfo/keps BID: ORB11307.W TO ALL RADIO AMATEURS BT
Satellite: NOAA-10 Catalog number: 16969 Epoch time: 11306.92514946 Element set: 0697 Inclination: 098.6082 deg RA of node: 334.7448 deg Eccentricity: 0.0012164 Arg of perigee: 175.8266 deg Mean anomaly: 184.3018 deg Mean motion: 14.27491370 rev/day Decay rate: 2.6e-07 rev/day^2 Epoch rev: 30744 Checksum: 320
